This is the latest recevied weather packets stored in our database for station/object E25HML-13. If no packets are shown the sender has not sent any weather packets the latest 10 day(s).
| Time | Temp. | Humidity | Pressure | Rain* | Wind** | Luminosity | Snow |
|---|---|---|---|---|---|---|---|
| 1777889912 | 33.33° C | 58% | 1003.4 hPa | - | - | - | - |
| 1777889611 | 33.89° C | 56% | 1003.2 hPa | - | - | - | - |
| 1777889312 | 33.89° C | 54% | 1003.1 hPa | - | - | - | - |
| 1777889012 | 34.44° C | 54% | 1002.8 hPa | - | - | - | - |
| 1777888712 | 34.44° C | 55% | 1002.9 hPa | - | - | - | - |
| 1777888412 | 33.89° C | 56% | 1002.9 hPa | - | - | - | - |
| 1777888111 | 35° C | 55% | 1003 hPa | - | - | - | - |
| 1777887812 | 35.56° C | 54% | 1002.9 hPa | - | - | - | - |
| 1777887512 | 37.22° C | 52% | 1002.9 hPa | - | - | - | - |
| 1777887212 | 37.78° C | 51% | 1002.6 hPa | - | - | - | - |
| 1777886912 | 37.78° C | 51% | 1002.4 hPa | - | - | - | - |
| 1777886612 | 37.78° C | 51% | 1002.3 hPa | - | - | - | - |
| 1777886312 | 37.78° C | 52% | 1002.3 hPa | - | - | - | - |
| 1777886012 | 37.78° C | 52% | 1002.2 hPa | - | - | - | - |
| 1777885712 | 37.78° C | 52% | 1002.4 hPa | - | - | - | - |
| 1777885412 | 37.78° C | 52% | 1002.6 hPa | - | - | - | - |
| 1777885112 | 37.78° C | 52% | 1002.8 hPa | - | - | - | - |
| 1777884812 | 37.78° C | 51% | 1002.8 hPa | - | - | - | - |
| 1777884512 | 37.78° C | 52% | 1002.8 hPa | - | - | - | - |
| 1777884212 | 37.78° C | 52% | 1002.9 hPa | - | - | - | - |
| 1777883912 | 37.78° C | 53% | 1003 hPa | - | - | - | - |
| 1777883611 | 37.78° C | 53% | 1003 hPa | - | - | - | - |
| 1777883315 | 37.22° C | 53% | 1003 hPa | - | - | - | - |
| 1777883012 | 37.22° C | 53% | 1003.1 hPa | - | - | - | - |
| 1777882711 | 37.22° C | 53% | 1003.2 hPa | - | - | - | - |
* Rain since midnight (hover to see other rain measurements)
** Current wind speed in m/s (hover to see current wind gust speed)